Change the Weather History Date:

Saturday, September 22, 2012

  Actual Average Record
Temperature  
Mean Temperature 80 °F -  
Max Temperature 86 °F 88 °F 91 °F (2000)
Min Temperature 75 °F 76 °F 73 °F (2001)
Cooling Degree Days 16    
Growing Degree Days 30 (Base 50)    
Moisture  
Dew Point 74 °F    
Average Humidity 80    
Maximum Humidity 94    
Minimum Humidity 60    
Precipitation  
Precipitation 0.08 in - - ()
Sea Level Pressure  
Sea Level Pressure 29.82 in    
Wind  
Wind Speed 2 mph ()    
Max Wind Speed 10 mph    
Max Gust Speed -    
Visibility 2.3 miles    
Events Rain    
Averages and records for this station are not official NWS values.
T = Trace of Precipitation, MM = Missing Value Source: Averaged Metar Reports

Daily Weather History Graph

Daily Weather History Graph

Search for Another Location

Airport or City:

Trip Planner

Search our weather history database for the weather conditions in past years. The results will help you decide how hot, cold, wet, or windy it might be!

Date:

Astronomy

Sep. 22, 2012 Rise Set
Actual Time 6:27 AM IST 6:34 PM IST
Civil Twilight 6:05 AM IST 6:56 PM IST
Nautical Twilight 5:40 AM IST 7:21 PM IST
Astronomical Twilight 5:14 AM IST 7:47 PM IST
Moon 12:32 PM IST (9/22) 11:57 PM IST (9/22)
Length of Visible Light 12h 50m
Length of Day
12h 07m
Waxing Crescent, 44% of the Moon is Illuminated
Sep 22
Waxing Crescent
Sep 23
First Quarter
Sep 30
Full
Oct 8
Last Quarter
Oct 15
New

Hourly Weather History & Observations

Time (IST) Temp. Heat Index Dew Point Humidity Pressure Visibility Wind Dir Wind Speed Gust Speed Precip Events Conditions
12:10 AM 82.4 °F 88.2 °F 73.4 °F 74% 29.80 in 2.5 mi SE 3.5 mph - N/A   Haze
12:40 AM 80.6 °F 86.2 °F 75.2 °F 84% 29.80 in 2.5 mi Calm Calm - N/A   Haze
1:10 AM 80.6 °F 86.2 °F 75.2 °F 84% 29.80 in 2.2 mi Calm Calm - N/A   Haze
1:40 AM 80.6 °F 86.2 °F 75.2 °F 84% 29.80 in 2.2 mi Calm Calm - N/A   Haze
2:10 AM 80.6 °F 86.2 °F 75.2 °F 84% 29.77 in 2.2 mi ESE 3.5 mph - N/A   Haze
2:30 AM 79 °F - 76 °F 88% 29.78 in 1 mi Calm Calm - - Rain Light Drizzle
2:40 AM 80.6 °F 86.2 °F 75.2 °F 84% 29.77 in 2.2 mi Calm Calm - N/A   Haze
3:10 AM 80.6 °F 85.4 °F 73.4 °F 79% 29.77 in 2.2 mi Calm Calm - N/A   Haze
3:40 AM 80.6 °F 86.2 °F 75.2 °F 84% 29.77 in 2.2 mi Calm Calm - N/A   Haze
4:10 AM 80.6 °F 86.2 °F 75.2 °F 84% 29.77 in 2.2 mi Calm Calm - N/A   Haze
4:40 AM 78.8 °F - 75.2 °F 89% 29.77 in 2.2 mi Calm Calm - N/A   Haze
5:10 AM 78.8 °F - 75.2 °F 89% 29.80 in 2.2 mi Calm Calm - N/A   Haze
5:30 AM 78 °F - 74 °F 84% 29.80 in 1 mi South 3.5 mph - -   Haze
5:40 AM 78.8 °F - 73.4 °F 83% 29.80 in 2.2 mi Calm Calm - N/A Rain Light Rain
6:10 AM 78.8 °F - 73.4 °F 83% 29.80 in 2.2 mi Calm Calm - N/A   Haze
6:40 AM 78.8 °F - 75.2 °F 89% 29.83 in 2.2 mi Calm Calm - N/A   Haze
7:10 AM 78.8 °F - 75.2 °F 89% 29.83 in 2.2 mi Calm Calm - N/A   Haze
7:40 AM 78.8 °F - 75.2 °F 89% 29.86 in 2.2 mi Calm Calm - N/A   Haze
8:30 AM 78 °F - 74 °F 84% 29.88 in 1 mi SW 4.6 mph - - Rain Light Rain
8:40 AM 77.0 °F - 75.2 °F 94% 29.89 in 0.7 mi Calm Calm - N/A Rain Rain
10:40 AM 78.8 °F - 75.2 °F 89% 29.89 in 2.2 mi Calm Calm - N/A   Haze
11:10 AM 80.6 °F 86.2 °F 75.2 °F 84% 29.89 in 2.2 mi Calm Calm - N/A   Haze
11:30 AM 81 °F - 76 °F 80% 29.89 in 1 mi Calm Calm - - Rain Light Drizzle
11:40 AM 80.6 °F 86.2 °F 75.2 °F 84% 29.89 in 2.2 mi Calm Calm - N/A   Haze
12:10 PM 82.4 °F 89.5 °F 75.2 °F 79% 29.86 in 2.5 mi Calm Calm - N/A   Haze
12:40 PM 84.2 °F 92.3 °F 75.2 °F 74% 29.86 in 2.5 mi Calm Calm - N/A   Haze
1:10 PM 84.2 °F 90.9 °F 73.4 °F 70% 29.83 in 2.8 mi West 5.8 mph - N/A   Smoke
1:40 PM 84.2 °F 90.9 °F 73.4 °F 70% 29.83 in 2.8 mi West 5.8 mph - N/A   Smoke
2:10 PM 84.2 °F 90.9 °F 73.4 °F 70% 29.83 in 2.8 mi WSW 9.2 mph - N/A   Smoke
2:30 PM 85 °F - 73 °F 60% 29.81 in 1 mi Calm Calm - -   Smoke
3:10 PM 84.2 °F 90.9 °F 73.4 °F 70% 29.80 in 3.1 mi WNW 6.9 mph - N/A   Smoke
3:40 PM 84.2 °F 90.9 °F 73.4 °F 70% 29.80 in 3.7 mi WNW 10.4 mph - N/A   Mostly Cloudy
4:10 PM 84.2 °F 90.9 °F 73.4 °F 70% 29.80 in 3.7 mi WNW 6.9 mph - N/A   Mostly Cloudy
4:40 PM 84.2 °F 90.9 °F 73.4 °F 70% 29.77 in 3.7 mi West 8.1 mph - N/A   Mostly Cloudy
5:10 PM 82.4 °F 89.5 °F 75.2 °F 79% 29.80 in 3.7 mi WSW 6.9 mph - N/A   Mostly Cloudy
5:30 PM 84 °F - 74 °F 66% 29.79 in 1 mi West 3.5 mph - -   Smoke
5:40 PM 82.4 °F 89.5 °F 75.2 °F 79% 29.80 in 3.7 mi West 8.1 mph - N/A   Scattered Clouds
6:10 PM 82.4 °F 88.2 °F 73.4 °F 74% 29.80 in 3.7 mi West 5.8 mph - N/A   Scattered Clouds
7:10 PM 82.4 °F 88.2 °F 73.4 °F 74% 29.83 in 3.1 mi West 5.8 mph - N/A   Smoke
7:40 PM 82.4 °F 88.2 °F 73.4 °F 74% 29.83 in 2.5 mi WNW 6.9 mph - N/A   Smoke
8:10 PM 82.4 °F 88.2 °F 73.4 °F 74% 29.83 in 2.5 mi NW 4.6 mph - N/A   Smoke
8:30 PM 80 °F - 75 °F 79% 29.84 in 1 mi Calm Calm - -   Haze
8:40 PM 82.4 °F 89.5 °F 75.2 °F 79% 29.83 in 2.5 mi WNW 4.6 mph - N/A   Haze
9:10 PM 82.4 °F 89.5 °F 75.2 °F 79% 29.86 in 2.5 mi NW 3.5 mph - N/A   Haze
9:40 PM 82.4 °F 88.2 °F 73.4 °F 74% 29.86 in 2.5 mi Calm Calm - N/A   Haze
10:10 PM 82.4 °F 88.2 °F 73.4 °F 74% 29.86 in 2.5 mi Calm Calm - N/A   Haze
10:40 PM 82.4 °F 89.5 °F 75.2 °F 79% 29.86 in 2.5 mi Calm Calm - N/A   Haze
11:10 PM 80.6 °F 86.2 °F 75.2 °F 84% 29.86 in 2.5 mi Calm Calm - N/A   Haze
11:30 PM 78 °F - 75 °F 87% 29.85 in 1 mi Calm Calm - -   Haze
11:40 PM 80.6 °F 86.2 °F 75.2 °F 84% 29.83 in 2.5 mi Calm Calm - N/A   Haze